ATLAS 5 CENTAUR DEB, 44002

Orbit data source: Space-Track

ATLAS 5 CENTAUR DEB, 44002 is space debris in HEO originally from a launch on Wed, 17 Sep 2014 UTC launched from the Air Force Eastern Test Range (AFETR). Debris objects in space refer to the collection of defunct objects orbiting the Earth. Examples of debris include non-operational satellites, rocket bodies, and fragments generated from explosions, collisions, or faulty payload assembly.

Loading next visibility...
Identifier
44002, 2014-055BH
Orbit
HEO
Country
Flag of USUS
Related business
Flag of USUnited Launch Alliance/Lockheed Martin (US)
Manufacturer
Unknown
Mission
Spacecraft
Bus & Motor
Unknown
Mass
Unknown
Launch date (UTC)
2014-09-17 (11 years ago)
Launch vehicle
Unknown
Launch site
Air Force Eastern Test Range (AFETR)
Object type
Payload
Rocket body
Debris
Shape & HBR
Unknown shape, 1.1 m
Radar Cross Section
Medium (>0.1 m² and <1 m²)

Expand to show TLE details & history
Last TLE update: 2 days ago

TLE from 2 days ago
0 ATLAS 5 CENTAUR DEB
1 44002U 14055BH  25348.80555916 -.00000031  00000-0  00000-0 0  9991
2 44002  19.6079 166.4564 4841786 123.5675 292.3416  1.83903762 48988
Epoch: 2025-12-14T19:20Z
TLE epoch observation values (Epoch: 2025-12-14T19:20:00.311Z)
Latitude
-0.00005°
Longitude
152.7838°
Altitude
22,997.247 km
Speed
3.602 km/s
True Right ascension
11h 05m 59s
True Declination
0° 00' 00"
Sunlit
Object was in daylight at epoch
Visualization orbit readout
Latitude
Unknown
Longitude
Unknown
Altitude
Unknown
Speed
Unknown
Apparent Right ascension
Unknown
Apparent Declination
Unknown
Sunlit
N/A
Visualization observer readout
Local Sidereal Time
08:40:55
Azimuth
Unknown
Elevation
Unknown
Doppler factor
Unknown
Orbital elements
Apogee altitude
35,391.224 km
Perigee altitude
8,138.667 km
Semi-major axis
28,143.083 km
Eccentricity
0.48418
Inclination
19.6079°
RAAN
166.4564°
Arg. of periapsis
123.5675°
True anomaly
236.51985°
Mean anomaly
292.3416°
Eccentric anomaly
264.71801°
Mean motion
0.45971 °/min
Orbital period
783.1 mins
BSTAR
0
Loading maneuver chart data...
Computing Atmospheric mass density...

Documentation

Showing up to 5 results
|